Location: Saluda
(35.2377°N, 82.3468°W)
Time: 19:02:49
(UTC+00:00)

Vanguard 2 - Pass Details

Date: 06 October 2022
Orbit: 553 x 2933 km, 32.9° (Epoch: 06 December)

Event Time Altitude Azimuth Distance (km) Brightness Sun altitude
Rises 23:49:49 0° 283° (WNW) 6,236 14.1 -9.5°
Reaches altitude 10° 23:53:59 10° 277° (W) 5,438 13.4 -10.3°
Maximum altitude 00:09:15 41° 215° (SW) 3,766 11.3 -13.4°
Drops below altitude 10° 00:24:17 10° 152° (SSE) 5,328 11.5 -16.5°
Sets 00:28:23 0° 145° (SE) 6,100 11.7 -17.3°
